Regional Weather Roundup
Issued by NWS Upton, NY

Current Version | Previous Version | Graphics & Text | Print | Product List | Glossary Off
Versions: 1 2 3 4 5 6 7 8 9 10 11 12 13 14 15 16 17 18 19 20 21 22 23 24 25 26 27 28 29 30 31 32 33 34 35 36 37 38 39 40 41 42 43 44 45 46 47 48 49 50

000
ASUS41 KOKX 242105
RWROKX

REGIONAL WEATHER ROUNDUP
NATIONAL WEATHER SERVICE NEW YORK NY
500 PM EDT THU JUL 24 2014

NOTE: "FAIR" INDICATES FEW OR NO CLOUDS BELOW 12,000 FEET WITH NO
SIGNIFICANT WEATHER AND/OR OBSTRUCTIONS TO VISIBILITY.

NYZ071-072-176-178-NJZ106-104-242200-
NEW YORK CITY METRO AREA


CITY           SKY/WX    TMP DP  RH WIND       PRES   REMARKS
CENTRAL PARK   PTSUNNY   77  55  46 N7        29.87S
LAGUARDIA APRT MOSUNNY   80  53  39 N10       29.84S
KENNEDY INTL   PTSUNNY   82  55  39 VRB6      29.85S
NEWARK/LIBERTY PTSUNNY   83  55  38 NW8G17    29.83F
BRNX BOT. GARD   N/A     81  55  41 NW5       29.87R
TETERBORO      PTSUNNY   82  56  40 N8        29.83F
$$

NYZ177-179-078>081-242200-
LONG ISLAND NEW YORK

CITY           SKY/WX    TMP DP  RH WIND       PRES   REMARKS
FARMINGDALE    MOSUNNY   77  57  50 NW8G16    29.84F
ISLIP          PTSUNNY   81  59  47 NW13      29.82S
SHIRLEY        PTSUNNY   80  60  50 N9        29.83F
WESTHAMPTON    CLOUDY    80  60  50 NW10      29.84S
MONTAUK POINT    N/A     73  66  78 E5        29.84R
$$

NYZ052-065-067-242200-
HUDSON VALLEY

CITY           SKY/WX    TMP DP  RH WIND       PRES   REMARKS
WHITE PLAINS   MOSUNNY   78  55  44 N10       29.85F
NEWBURGH       PTSUNNY   77  59  53 NE12      29.88S
MONTGOMERY     PTSUNNY   79  59  50 NE10      29.87S
POUGHKEEPSIE   MOSUNNY   78  57  48 NE13      29.85F
ALBANY         PTSUNNY   77  56  48 CALM      29.87F
$$

NJZ001-105-106-008-010-013-015-019>022-104-242200-
NEW JERSEY

CITY           SKY/WX    TMP DP  RH WIND       PRES   REMARKS
NEWARK/LIBERTY PTSUNNY   83  55  38 NW8G17    29.83F
TETERBORO      PTSUNNY   82  56  40 N8        29.83F
CALDWELL       MOSUNNY   80  57  45 N5        29.86S
MORRISTOWN     PTSUNNY   81  59  47 CALM      29.86S
SOMERVILLE     MOSUNNY   82  54  37 NW8G17    29.84S
LINDEN         MOCLDY    84  57  39 E7        29.85F
SUSSEX         SUNNY     80  54  40 N7        29.88R
ANDOVER          N/A     78  54  43 N7        29.89R
TRENTON        PTSUNNY   78  57  48 N7        29.85F
MILLVILLE      MOSUNNY   82  57  42 NW8       29.86F
ATLANTIC CITY  MOSUNNY   79  60  52 NW7       29.84F
WRIGHTSTOWN    MOSUNNY   80  60  48 NW7       29.83F
TOMS RIVER     PTSUNNY   81  61  50 N7        29.84F
BELMAR         PTSUNNY   79  61  53 N8        29.85S
$$

PAZ047>061-062-071-242200-
EASTERN PENNSYLVANIA

CITY           SKY/WX    TMP DP  RH WIND       PRES   REMARKS
PHILADELPHIA   MOSUNNY   83  56  39 N14G20    29.86S
ALLENTOWN      PTSUNNY   81  54  39 N10       29.88S
SCRANTON       MOSUNNY   74  49  41 N10       29.93S
$$

CTZ002-004>006-009-010-012-RIZ004-006-007-MAZ004-011-015-242200-
SOUTHERN NEW ENGLAND
 IN CT

CITY           SKY/WX    TMP DP  RH WIND       PRES   REMARKS
BRADLEY INTL   PTSUNNY   82  57  42 N8        29.82S
HARTFORD       MOSUNNY   78  55  44 N7        29.82S
DANBURY        MOSUNNY   77  53  43 N10G20    29.88R
WTRBRY/OXFORD  MOSUNNY   75  59  57 NW8       29.88S
BRIDGEPORT     MOSUNNY   80  60  50 NW9       29.83S
MERIDEN        PTSUNNY   79  59  50 N8        29.83S
NEW HAVEN      PTSUNNY   80  61  52 N5        29.83R
CHESTER        MOCLDY    79  63  57 N6        29.85R
GROTON         CLOUDY    72  67  84 SE10      29.82R
WILLIMANTIC    PTSUNNY   80  59  48 NW7       29.82F

 IN RI

CITY           SKY/WX    TMP DP  RH WIND       PRES   REMARKS
PROVIDENCE     CLOUDY    75  60  59 E8        29.82F
BLOCK ISLAND   CLOUDY    70  64  83 E8        29.84R
WESTERLY       CLOUDY    73  66  78 SE12      29.83S

 IN MA

CITY           SKY/WX    TMP DP  RH WIND       PRES   REMARKS
BOSTON         CLOUDY    68  61  78 SE6       29.84S
WORCESTER      PTSUNNY   76  56  49 NW8       29.86S
WESTFIELD      PTSUNNY   78  56  46 N9        29.84S
PROVINCETOWN   CLOUDY    66  64  94 NE7       29.84S
NANTUCKET      LGT RAIN  67  65  93 N16       29.82R
$$

ANZ330-335-338-340-345-350-353-355-242200-
COASTAL MARINE OBSERVATIONS


STATION/POSITION TIME  SKY/WX   TEMP    WIND        PRES    VSBY  WAVE
                                AIR SEA DIR/SP/G                  HT/PER
                 (UTC)          (F)     (DEG/KT/KT) (MB)    (MI)  (FT/S)
NY HARB ENTRANCE NOT AVBL
4S FIRE IS       NOT AVBL
23SW MTP         2100            73 72              1009.3          2/ 8
HUDSON CANYON    2100            72 74  350/ 10/ 14 1009.5          3/ 8
EXECUTION ROCKS  2100            77 74   30/  4/ 10   N/A
WESTERN LI SOUND 2100            77      10/  8/ 10   N/A           0
CENTRAL LI SOUND 2000            75 74  260/  6/  6   N/A           0
EASTERN LI SOUND 2000            73 67   60/  4/  8   N/A
ROBBINS REEF     2100            77      50/  8/  9   N/A
$$


>>>>>>>>>>>>>>>>>>>>>>>>>>>> KEY <<<<<<<<<<<<<<<<<<<<<<<<<<<
>                                                          <
>     SKY/WX - SKY CONDITION/PRESENT WEATHER               <
>     TMP    - TEMPERATURE IN FAHRENHEIT                   <
>     DP     - DEWPOINT IN FAHRENHEIT                      <
>     RH     - RELATIVE HUMIDITY IN PERCENT                <
>     WIND   - DIRECTION AND SPEED IN MPH                  <
>     PRES   - MEAN SEA LEVEL PRESSURE IN INCHES OF HG     <
>     WCI    - WIND CHILL INDEX                            <
>     VSB    - VISIBILITY IN MILES                         <
>     HX     - HEAT INDEX                                  <
>     TC     - TEMPERATURE IN CELSIUS                      <
>     VRB    - VARIABLE WIND DIRECTION                     <
>                                                          <
>>>>>>>>>>>>>>>>>>>>>>>>>>>> KEY <<<<<<<<<<<<<<<<<<<<<<<<<<<





USA.gov is the U.S. government's official web portal to all federal, state and local government web resources and services.